Location: ?????
(31.8092°N, 35.2590°E)
Time: 04:29:47
(UTC+00:00)

Lacrosse 5 - Pass Details

Date: 30 October 2021
Orbit: 714 x 724 km, 57.0° (Epoch: 28 August)

Event Time Altitude Azimuth Distance (km) Brightness Sun altitude
Rises 15:25:34 0° 206° (SSW) 3,119 5.7 -7.9°
Reaches altitude 10° 15:27:58 10° 202° (SSW) 2,202 4.9 -8.4°
Maximum altitude 15:32:56 57° 124° (SE) 845 2.0 -9.5°
Drops below altitude 10° 15:37:56 10° 46° (NE) 2,214 3.9 -10.5°
Enters shadow 15:38:17 - 46° (NE) 2,345 4.0 -10.6°
